Location: Deer Lodge Site
(39.6809°N, 119.9392°W)
Time: 11:29:53
(UTC-07:00)

Amateur Radio Satellites - All Passes

Search period start: 20 August 2014 10:59
Search period end: 21 August 2014 10:59
Location: Deer Lodge Site, 39.6809°N, 119.9392°W

Satellite Date Start Highest point End Downlink Frequencies (MHz)
Time Altitude Azimuth
Oscar 11 20 Aug 11:03:08 11:07:29 68° 285° (WNW) 11:11:49 145.825 FM, Beacon 2401.500 USB
Saudisat 1A 20 Aug 11:23:17 11:27:22 37° 245° (WSW) 11:31:24 436.775 MHz
RS-15 20 Aug 12:07:59 12:17:45 35° 321° (NW) 12:27:31 29.354 - 29.394 USB, Beacon 29.352 USB
KITSAT 1 20 Aug 12:18:08 12:25:31 41° 251° (WSW) 12:32:51 435.175 FM
FUNcube-1 20 Aug 12:34:17 12:37:25 19° 293° (WNW) 12:40:36 145.950 - 145.970 MHz USB
HO-68 20 Aug 12:36:11 12:38:34 12° 309° (NW) 12:40:57 435.675 MHz FM
JAS-1B 20 Aug 12:42:10 12:48:54 22° 55° (NE) 12:55:21 435.800 - 435.900 CW/SSB
Oscar 19 20 Aug 12:50:37 12:54:49 26° 66° (ENE) 12:59:04 437.125 CW, 437.150 USB
ITAMSAT 1 20 Aug 12:58:55 13:01:38 15° 61° (ENE) 13:04:21 435.822 SSB
AO-Echo 20 Aug 13:09:41 13:13:16 19° 65° (ENE) 13:16:48 ?
Uribyol 2 20 Aug 13:10:46 13:14:25 20° 64° (ENE) 13:18:03 436.500 FM
Oscar 16 20 Aug 13:22:30 13:27:30 54° 72° (ENE) 13:32:32 437.025 USB, Beacon 2401.1428
AO-27 20 Aug 13:23:10 13:27:19 25° 66° (ENE) 13:31:27 436.795 MHz FM
TMSAT-1 20 Aug 13:47:54 13:50:21 13° 60° (ENE) 13:52:48 436.925 FM
ISS 20 Aug 13:58:39 14:01:15 21° 132° (SE) 14:03:50 145.800 FM
Gurwin Techsat 1B 20 Aug 14:25:42 14:30:37 40° 70° (ENE) 14:35:34 435.225 FM
RS-15 20 Aug 14:28:00 14:34:50 18° 356° (N) 14:41:43 29.354 - 29.394 USB, Beacon 29.352 USB
JAS-1B 20 Aug 14:28:10 14:38:04 81° 73° (ENE) 14:47:36 435.800 - 435.900 CW/SSB
Oscar 19 20 Aug 14:29:16 14:33:59 36° 263° (W) 14:38:44 437.125 CW, 437.150 USB
ITAMSAT 1 20 Aug 14:35:20 14:40:30 72° 257° (WSW) 14:45:41 435.822 SSB
SO-50 20 Aug 14:45:52 14:49:59 28° 48° (NE) 14:54:08 436.795 FM
AO-Echo 20 Aug 14:46:35 14:51:39 51° 260° (W) 14:56:37 ?
Uribyol 2 20 Aug 14:48:29 14:53:29 50° 260° (W) 14:58:31 436.500 FM
AO-27 20 Aug 15:01:45 15:06:35 39° 262° (W) 15:11:27 436.795 MHz FM
Oscar 16 20 Aug 15:03:53 15:07:10 17° 268° (W) 15:10:28 437.025 USB, Beacon 2401.1428
AO-7 20 Aug 15:16:35 15:23:55 36° 60° (ENE) 15:31:15 29.400 - 29.500 MHz
MaSat-1 20 Aug 15:19:44 15:23:48 31° 105° (ESE) 15:28:13 437.345 MHz
TMSAT-1 20 Aug 15:24:16 15:29:33 80° 257° (WSW) 15:34:53 436.925 FM
Uosat F 20 Aug 15:28:15 15:32:09 23° 65° (ENE) 15:36:03 435.120 FM
ISS 20 Aug 15:34:38 15:37:48 41° 328° (NNW) 15:40:59 145.800 FM
Gurwin Techsat 1B 20 Aug 16:06:27 16:10:42 24° 266° (W) 16:14:58 435.225 FM
UOSAT-12 20 Aug 16:08:43 16:11:51 17° 42° (NE) 16:14:57 437.025 FM, 437.400 FM
OPAL 20 Aug 16:11:31 16:14:05 14° 93° (E) 16:16:40 ?
JAS-1B 20 Aug 16:21:30 16:29:10 25° 270° (W) 16:36:45 435.800 - 435.900 CW/SSB
SO-50 20 Aug 16:26:12 16:30:37 37° 245° (WSW) 16:35:04 436.795 FM
RS-15 20 Aug 16:43:27 16:52:33 28° 32° (NNE) 17:01:50 29.354 - 29.394 USB, Beacon 29.352 USB
JAS-2 20 Aug 16:53:15 16:57:45 20° 64° (ENE) 17:01:56 435.800 - 435.900 CW/SSB, 435.910 FM
MaSat-1 20 Aug 16:56:37 17:00:52 31° 304° (NW) 17:05:27 437.345 MHz
Uosat F 20 Aug 17:05:58 17:10:40 40° 261° (W) 17:15:24 435.120 FM
AO-7 20 Aug 17:08:18 17:16:23 53° 258° (WSW) 17:24:30 29.400 - 29.500 MHz
ISS 20 Aug 17:13:35 17:15:14 13° 347° (NNW) 17:16:53 145.800 FM
Hamsat 20 Aug 17:31:30 17:35:14 30° 70° (ENE) 17:39:01 145.90 MHz
UOSAT-12 20 Aug 17:47:47 17:52:30 70° 241° (WSW) 17:57:07 437.025 FM, 437.400 FM
OPAL 20 Aug 17:48:14 17:53:25 70° 288° (WNW) 17:58:36 ?
JAS-2 20 Aug 18:35:31 18:42:24 69° 258° (WSW) 18:48:29 435.800 - 435.900 CW/SSB, 435.910 FM
Sapphire 20 Aug 18:38:02 18:42:07 22° 106° (ESE) 18:46:12 437.095 MHz 1200 baud AX-25 AFSK
PANSAT 20 Aug 18:46:31 18:48:48 15° 178° (S) 18:51:05 not established
ISS 20 Aug 18:51:53 18:53:08 12° 8° (N) 18:54:23 145.800 FM
RS-15 20 Aug 18:55:40 19:06:48 82° 58° (ENE) 19:18:23 29.354 - 29.394 USB, Beacon 29.352 USB
PCSat 20 Aug 19:07:28 19:12:34 45° 112° (ESE) 19:17:42 145.825 MHz
Hamsat 20 Aug 19:07:57 19:11:13 21° 266° (W) 19:14:33 145.90 MHz
STRAND 1 20 Aug 19:14:04 19:18:41 34° 97° (E) 19:23:17 ?
HO-68 20 Aug 19:28:10 19:32:31 18° 55° (NE) 19:36:53 435.675 MHz FM
SO-67 20 Aug 19:43:36 19:46:57 46° 261° (W) 19:50:19 435.3500 MHz FM
Oscar 10/S400 20 Aug 20:14:24 20:33:24 55° 158° (SSE) 21:49:16 145.825 - 145.975 CW/USB, Beacon 145.810 USB
Sapphire 20 Aug 20:19:56 20:25:09 49° 303° (WNW) 20:30:25 437.095 MHz 1200 baud AX-25 AFSK
PANSAT 20 Aug 20:26:39 20:28:17 12° 191° (S) 20:29:55 not established
ISS 20 Aug 20:27:46 20:30:44 29° 28° (NNE) 20:33:41 145.800 FM
PCSat 20 Aug 20:51:36 20:56:09 27° 310° (NW) 21:00:44 145.825 MHz
STRAND 1 20 Aug 20:53:29 20:57:44 27° 293° (WNW) 21:01:58 ?
RS-15 20 Aug 21:09:34 21:17:55 25° 258° (WSW) 21:26:33 29.354 - 29.394 USB, Beacon 29.352 USB
HO-68 20 Aug 21:12:05 21:19:15 89° 73° (ENE) 21:26:27 435.675 MHz FM
UKube-1 20 Aug 21:39:14 21:43:36 85° 257° (WSW) 21:47:58 145.840 MHz, 145.915 MHz
FUNcube-1 20 Aug 21:53:29 21:56:57 27° 69° (ENE) 22:00:28 145.950 - 145.970 MHz USB
Oscar 11 20 Aug 21:57:04 22:01:23 84° 77° (ENE) 22:05:44 145.825 FM, Beacon 2401.500 USB
ISS 20 Aug 22:04:25 22:07:30 35° 225° (SW) 22:10:33 145.800 FM
HO-68 20 Aug 23:04:00 23:07:47 15° 270° (W) 23:11:36 435.675 MHz FM
AO-40 20 Aug 23:29:30 03:24:12 31° 134° (SE) 04:51:45 Beacon 2401.320
FUNcube-1 20 Aug 23:30:01 23:33:19 23° 265° (W) 23:36:39 145.950 - 145.970 MHz USB
KITSAT 1 21 Aug 00:50:26 00:57:27 34° 107° (ESE) 01:04:29 435.175 FM
MaSat-1 21 Aug 01:14:53 01:19:42 56° 61° (ENE) 01:23:56 437.345 MHz
Saudisat 1A 21 Aug 01:28:25 01:32:47 67° 119° (ESE) 01:37:11 436.775 MHz
Oscar 16 21 Aug 01:35:52 01:39:43 21° 93° (E) 01:43:33 437.025 USB, Beacon 2401.1428
JAS-1B 21 Aug 02:18:46 02:24:09 22° 88° (E) 02:28:57 435.800 - 435.900 CW/SSB
Oscar 19 21 Aug 02:41:07 02:46:22 85° 104° (ESE) 02:51:33 437.125 CW, 437.150 USB
Gurwin Techsat 1B 21 Aug 02:43:46 02:47:10 17° 92° (E) 02:50:33 435.225 FM
KITSAT 1 21 Aug 02:44:36 02:52:29 55° 306° (NW) 03:00:25 435.175 FM
ITAMSAT 1 21 Aug 02:49:12 02:54:08 43° 99° (E) 02:59:02 435.822 SSB
MaSat-1 21 Aug 02:53:42 02:56:07 14° 261° (W) 02:58:23 437.345 MHz
AO-Echo 21 Aug 02:54:48 02:59:26 53° 100° (E) 03:04:00 ?
Uribyol 2 21 Aug 03:01:51 03:06:59 62° 101° (ESE) 03:12:06 436.500 FM
Saudisat 1A 21 Aug 03:10:04 03:12:49 16° 317° (NW) 03:15:34 436.775 MHz
Oscar 16 21 Aug 03:14:19 03:19:16 46° 289° (WNW) 03:24:12 437.025 USB, Beacon 2401.1428
AO-27 21 Aug 03:15:10 03:20:22 79° 103° (ESE) 03:25:32 436.795 MHz FM
OPAL 21 Aug 03:25:07 03:29:00 23° 63° (ENE) 03:32:56 ?
Sapphire 21 Aug 03:26:14 03:29:57 18° 45° (NE) 03:33:39 437.095 MHz 1200 baud AX-25 AFSK
TMSAT-1 21 Aug 03:41:08 03:46:11 44° 99° (E) 03:51:12 436.925 FM
PCSat 21 Aug 03:56:13 04:01:04 32° 52° (NE) 04:05:52 145.825 MHz
JAS-1B 21 Aug 04:08:05 04:15:31 60° 291° (WNW) 04:21:44 435.800 - 435.900 CW/SSB
Gurwin Techsat 1B 21 Aug 04:22:17 04:27:29 57° 288° (WNW) 04:32:39 435.225 FM
Oscar 19 21 Aug 04:22:54 04:24:57 12° 300° (WNW) 04:27:00 437.125 CW, 437.150 USB
ITAMSAT 1 21 Aug 04:29:22 04:33:20 23° 295° (WNW) 04:37:17 435.822 SSB
AO-Echo 21 Aug 04:34:57 04:37:45 16° 297° (WNW) 04:40:32 ?
Uribyol 2 21 Aug 04:42:45 04:45:56 17° 298° (WNW) 04:49:07 436.500 FM
KITSAT 1 21 Aug 04:45:17 04:49:57 16° 331° (NNW) 04:54:37 435.175 FM
AO-27 21 Aug 04:56:51 04:59:11 13° 300° (WNW) 05:01:31 436.795 MHz FM
OPAL 21 Aug 05:02:54 05:07:36 41° 259° (W) 05:12:23 ?
Sapphire 21 Aug 05:08:32 05:13:58 74° 244° (WSW) 05:19:21 437.095 MHz 1200 baud AX-25 AFSK
AO-7 21 Aug 05:10:28 05:18:39 58° 103° (ESE) 05:26:45 29.400 - 29.500 MHz
Uosat F 21 Aug 05:14:06 05:19:06 66° 102° (ESE) 05:24:03 435.120 FM
TMSAT-1 21 Aug 05:21:42 05:25:48 23° 295° (WNW) 05:29:53 436.925 FM
PCSat 21 Aug 05:39:33 05:44:29 37° 250° (WSW) 05:49:24 145.825 MHz
JAS-2 21 Aug 05:48:15 05:50:15 12° 90° (E) 05:52:16 435.800 - 435.900 CW/SSB, 435.910 FM
JAS-1B 21 Aug 06:02:43 06:04:08 11° 314° (NW) 06:05:30 435.800 - 435.900 CW/SSB
STRAND 1 21 Aug 06:29:08 06:34:00 46° 71° (ENE) 06:38:52 ?
SO-50 21 Aug 06:39:58 06:44:25 89° 122° (ESE) 06:49:01 436.795 FM
Hamsat 21 Aug 06:53:16 06:57:39 71° 101° (E) 07:01:59 145.90 MHz
Uosat F 21 Aug 06:54:36 06:57:19 15° 298° (WNW) 07:00:02 435.120 FM
AO-7 21 Aug 07:03:56 07:10:58 32° 301° (WNW) 07:18:00 29.400 - 29.500 MHz
SO-67 21 Aug 07:09:50 07:11:14 12° 92° (E) 07:12:37 435.3500 MHz FM
JAS-2 21 Aug 07:30:45 07:35:54 69° 286° (WNW) 07:41:09 435.800 - 435.900 CW/SSB, 435.910 FM
UOSAT-12 21 Aug 07:58:09 08:02:28 42° 116° (ESE) 08:06:54 437.025 FM, 437.400 FM
STRAND 1 21 Aug 08:09:42 08:13:23 20° 267° (W) 08:17:06 ?
SO-50 21 Aug 08:23:24 08:25:40 14° 321° (NW) 08:27:57 436.795 FM
Hamsat 21 Aug 08:31:54 08:32:59 11° 297° (WNW) 08:34:04 145.90 MHz
SO-67 21 Aug 08:41:15 08:44:25 34° 287° (WNW) 08:47:35 435.3500 MHz FM
HO-68 21 Aug 08:42:37 08:46:58 17° 91° (E) 08:51:18 435.675 MHz FM
KITSAT 1 21 Aug 08:44:06 08:49:25 18° 33° (NNE) 08:54:43 435.175 FM
RS-15 21 Aug 09:17:44 09:28:31 59° 113° (ESE) 09:39:06 29.354 - 29.394 USB, Beacon 29.352 USB
UKube-1 21 Aug 09:29:31 09:32:22 17° 94° (E) 09:35:12 145.840 MHz, 145.915 MHz
UOSAT-12 21 Aug 09:39:01 09:42:47 24° 314° (NW) 09:46:38 437.025 FM, 437.400 FM
Oscar 11 21 Aug 09:46:46 09:49:33 16° 93° (E) 09:52:19 145.825 FM, Beacon 2401.500 USB
Saudisat 1A 21 Aug 09:56:02 10:00:14 42° 53° (NE) 10:04:25 436.775 MHz
HO-68 21 Aug 10:28:14 10:35:24 82° 288° (WNW) 10:42:33 435.675 MHz FM
KITSAT 1 21 Aug 10:38:28 10:46:32 66° 57° (ENE) 10:54:31 435.175 FM
